W6UA-13 Weather Reports


Display with metric or nautical units.
time (UTC)temp
F
wind
direction
speed
MPH
gust
MPH
rain 1hr
in
rain 24hr
in
rain mn
in
humidity
%
barometer
mb
20260507014937 67 323 3.0 5.0 0.00 0.00 0.00 58 1018.3
20260507013437 68 297 3.0 5.0 0.00 0.00 0.00 58 1018.4
20260507011937 69 342 3.0 11.0 0.00 0.00 0.00 56 1018.4
20260507010437 69 311 4.0 7.0 0.00 0.00 0.00 57 1018.3
20260507004937 70 316 3.0 6.0 0.00 0.00 0.00 54 1018.3
20260507003437 72 300 1.0 6.0 0.00 0.00 0.00 53 1018.4
20260507001937 71 211 2.0 6.0 0.00 0.00 0.00 57 1018.1
20260507000437 70 203 3.0 9.0 0.00 0.00 0.00 57 1018.0
20260506234937 72 264 4.0 13.0 0.00 0.00 0.00 55 1018.0
20260506233437 73 215 4.0 7.0 0.00 0.00 0.00 54 1018.0
20260506231937 74 213 3.0 9.0 0.00 0.00 0.00 53 1017.9
20260506230437 74 0 3.0 5.0 0.00 0.00 0.00 52 1017.9
20260506224937 74 243 2.0 4.0 0.00 0.00 0.00 54 1017.9
20260506223437 73 158 4.0 8.0 0.00 0.00 0.00 55 1017.9
20260506221937 73 250 3.0 7.0 0.00 0.00 0.00 54 1017.9
20260506220437 73 294 4.0 9.0 0.00 0.00 0.00 53 1017.9
20260506214937 73 293 3.0 7.0 0.00 0.00 0.00 54 1017.9
20260506213438 73 335 3.0 7.0 0.00 0.00 0.00 56 1018.0
20260506211938 71 236 4.0 10.0 0.00 0.00 0.00 60 1018.0
20260506210438 69 220 5.0 11.0 0.00 0.00 0.00 62 1018.2
20260506204938 69 200 5.0 12.0 0.00 0.00 0.00 62 1018.1
20260506203438 68 229 5.0 14.0 0.00 0.00 0.00 64 1018.4
20260506201938 67 278 7.0 18.0 0.00 0.00 0.00 65 1018.4
20260506200438 67 231 8.0 14.0 0.00 0.00 0.00 63 1018.4
20260506194938 68 259 7.0 15.0 0.00 0.00 0.00 62 1018.4
20260506193438 69 212 5.0 13.0 0.00 0.00 0.00 60 1018.5
20260506191938 70 248 3.0 9.0 0.00 0.00 0.00 60 1018.5
20260506190438 68 155 5.0 9.0 0.00 0.00 0.00 62 1018.5
20260506184938 69 242 4.0 8.0 0.00 0.00 0.00 61 1018.6
20260506183438 68 195 3.0 7.0 0.00 0.00 0.00 62 1018.6
20260506181938 68 165 3.0 6.0 0.00 0.00 0.00 61 1018.8
20260506180438 67 221 4.0 7.0 0.00 0.00 0.00 62 1018.8
20260506174938 67 204 3.0 8.0 0.00 0.00 0.00 63 1018.9
20260506173438 66 169 4.0 6.0 0.00 0.00 0.00 65 1018.9
20260506171938 65 179 4.0 7.0 0.00 0.00 0.00 66 1018.9
20260506170438 66 153 2.0 6.0 0.00 0.00 0.00 66 1018.7
20260506164938 66 207 2.0 5.0 0.00 0.00 0.00 66 1018.5
20260506163438 66 205 2.0 5.0 0.00 0.00 0.00 67 1018.5
20260506161938 65 201 0.0 2.0 0.00 0.00 0.00 66 1018.5
20260506160438 63 264 1.0 2.0 0.00 0.00 0.00 69 1018.5
20260506154938 62 240 1.0 2.0 0.00 0.00 0.00 72 1018.5
20260506153438 60 262 1.0 2.0 0.00 0.00 0.00 75 1018.5
20260506151938 58 325 0.0 2.0 0.00 0.00 0.00 79 1018.5
20260506150438 56 274 0.0 2.0 0.00 0.00 0.00 82 1018.5
20260506144938 55 329 1.0 3.0 0.00 0.00 0.00 85 1018.5
20260506143438 52 342 0.0 0.0 0.00 0.00 0.00 87 1018.4
20260506141939 50 342 0.0 0.0 0.00 0.00 0.00 89 1018.1
20260506140438 49 333 0.0 0.0 0.00 0.00 0.00 89 1018.0
20260506134938 48 359 0.0 0.0 0.00 0.00 0.00 89 1018.0
20260506133438 47 108 0.0 0.0 0.00 0.00 0.00 89 1018.0
20260506131938 47 272 0.0 0.0 0.00 0.00 0.00 89 1017.7
20260506130438 47 0 0.0 0.0 0.00 0.00 0.00 89 1017.5
20260506124938 46 329 2.0 2.0 0.00 0.00 0.00 88 1017.5
20260506123438 47 359 1.0 2.0 0.00 0.00 0.00 88 1017.4
20260506121938 47 356 1.0 2.0 0.00 0.00 0.00 88 1017.5
20260506120438 47 343 1.0 1.0 0.00 0.00 0.00 88 1017.5
20260506114938 47 313 1.0 2.0 0.00 0.00 0.00 88 1017.5
20260506113438 47 343 0.0 2.0 0.00 0.00 0.00 88 1017.7
20260506111938 48 330 1.0 2.0 0.00 0.00 0.00 87 1017.8
20260506110438 48 351 0.0 2.0 0.00 0.00 0.00 88 1017.6
20260506104938 48 344 1.0 1.0 0.00 0.00 0.00 87 1017.6
20260506103438 49 1 0.0 1.0 0.00 0.00 0.00 87 1017.6
20260506101938 49 32 0.0 2.0 0.00 0.00 0.00 87 1017.5
20260506100439 49 352 0.0 2.0 0.00 0.00 0.00 87 1017.5
20260506094939 49 3 1.0 2.0 0.00 0.00 0.00 87 1017.5
20260506093439 49 49 0.0 2.0 0.00 0.00 0.00 87 1017.6
20260506091939 49 316 0.0 2.0 0.00 0.00 0.00 87 1017.6
20260506090439 50 334 1.0 3.0 0.00 0.00 0.00 87 1017.9
20260506084939 50 354 0.0 0.0 0.00 0.00 0.00 86 1018.0
20260506083439 50 340 0.0 0.0 0.00 0.00 0.00 86 1018.0
20260506081939 51 338 0.0 0.0 0.00 0.00 0.00 86 1018.1
20260506080439 51 12 0.0 0.0 0.00 0.00 0.00 86 1018.1
20260506073439 52 345 0.0 2.0 0.00 0.00 0.00 85 1018.0
20260506071939 53 359 1.0 2.0 0.00 0.00 0.00 85 1018.0
20260506070439 53 1 1.0 2.0 0.00 0.00 0.00 84 1017.8
20260506061939 54 335 1.0 3.0 0.00 0.00 0.00 84 1017.6
20260506060439 54 304 0.0 0.0 0.00 0.00 0.00 84 1017.5
20260506050439 55 326 0.0 0.0 0.00 0.00 0.00 82 1017.2
20260506044939 55 310 1.0 0.0 0.00 0.00 0.00 82 1017.0
20260506043439 55 329 1.0 3.0 0.00 0.00 0.00 81 1017.0
20260506041939 55 304 1.0 3.0 0.00 0.00 0.00 80 1016.9
20260506040439 56 302 1.0 4.0 0.00 0.00 0.00 80 1016.8
20260506034939 56 313 2.0 6.0 0.00 0.00 0.00 79 1016.5
20260506033439 56 291 1.0 7.0 0.00 0.00 0.00 78 1016.4
20260506031939 57 300 2.0 3.0 0.00 0.00 0.00 77 1016.2
20260506030439 57 283 4.0 11.0 0.00 0.00 0.00 77 1015.9
20260506024939 57 307 4.0 9.0 0.00 0.00 0.00 75 1015.9
20260506023439 58 266 4.0 10.0 0.00 0.00 0.00 73 1015.9
20260506021939 59 333 4.0 6.0 0.00 0.00 0.00 71 1015.9
20260506020439 60 330 6.0 14.0 0.00 0.00 0.00 68 1015.9